STARLINK-1030, 44735

Orbit data source: Space-Track

STARLINK-1030, 44735 is a payload satellite owned by SpaceX/Seattle (US) in LEO that was launched on Mon, 11 Nov 2019 UTC via an FALCON 9 launch vehicle from the Air Force Eastern Test Range (AFETR). Payloads include a variety of satellites, spacecraft, and rockets equipped with specific instruments for various scientific and technological missions. These include communications satellites like Starlink; space stations such as the ISS; scientific satellites like the Hubble; Earth observation satellites from companies like Planet Labs, Umbra, and HawkEye 360; GPS; miniature CubeSats for education and research; and military/defense satellites.

Loading next visibility...
STARLINK-1030 details
Identifier
44735, 2019-074Y
Orbit
LEO
Last TLE update17 hours ago
Origin
Flag of USSpaceX/Seattle (US)
ManufacturerSpaceX/Seattle
MissionOperational Commercial Communications
Bus & MotorSTARLINK, Unknown motor
Mass260 kg wet, ~248 kg dry
Launch date (UTC)
2019-11-11 (5 years ago)
Launch vehicle
FALCON 9
Launch site
Air Force Eastern Test Range (AFETR)
Object type
Payload
Rocket body
Debris
Shape & HBRBox + 1 Pan, 8.86 m
Radar Cross Section13.562 m², Large (>1 m²)

Expand to show TLE details & history

TLE from 17 hours ago
0 STARLINK-1030
1 44735U 19074Y   24347.65950775  .00017408  00000-0  11840-2 0  9994
2 44735  53.0544  75.8609 0001548  87.4653 272.6513 15.06420901280332
Epoch: 2024-12-12T15:49Z
Definitive object data (Epoch: 2024-12-12T15:49:41.469Z)
Latitude-0.00004°
Longitude116.60142°
Altitude547.977 km
Speed7.589 km/s
True Right ascension05h 03m 26s
True Declination0° 00' 00"
Sunlit
Object was in full shadow at TLE epoch
Visualization TLE readout
Latitude-18.43177°
Longitude98.90904°
Altitude552.522 km
Speed7.585 km/s
Apparent Right ascension00h 47m 41s
Apparent Declination-47° 24' 49"
Sunlit
Object is in full shadow
Visualization observer readout
Local Sidereal Time07:44:10
Azimuth235.044° WSW
Elevation-36.803°
Doppler factor1
Orbital elements
Apogee altitude548.49 km
Perigee altitude546.346 km
Semi-major axis6,925.555 km
Eccentricity0.0001548
Inclination53.0544°
RAAN75.8609°
Arg. of periapsis87.4653°
True anomaly272.63358°
Mean anomaly272.6513°
Eccentric anomaly272.64244°
Mean motion3.76583 °/min
BSTAR0.001184
Orbital period95.6 mins
Loading maneuver chart data...

STARLINK-1030 Visibility forecast

Observer location: undefined°, undefined

Span
Click to sort rows by Start time (UTC) header in descending order
Start Az.
Max El. time (UTC)
Max El. Az.
Max El.
End time (UTC)
End Az.
6 mins2024-12-13 09:33:26.850Z258.829° W2024-12-13 09:36:26.850Z329.845° NNW34.84°2024-12-13 09:39:26.850Z35.48° NE
5 mins2024-12-13 14:36:26.850Z345.035° N2024-12-13 14:38:26.850Z37.549° NE28.02°2024-12-13 14:41:26.850Z91.26° ESE
6 mins2024-12-13 16:15:26.850Z285.922° WNW2024-12-13 16:17:26.850Z239.508° WSW32.798°2024-12-13 16:21:26.850Z157.127° SSE
5 mins2024-12-14 07:48:26.850Z185.61° SSW2024-12-14 07:50:26.850Z136.98° SSE30.525°2024-12-14 07:53:26.850Z71.497° E
|